Other Public Products
Issued by NWS Charleston, SC

Current Version | Previous Version | Graphics & Text | Print | Product List | Glossary On
Versions: 1 2 3 4 5 6 7 8 9 10 11 12 13 14 15 16 17 18 19 20 21 22 23 24 25 26 27 28 29 30 31 32 33 34 35 36 37 38 39 40 41 42 43 44 45 46 47 48 49 50
000
FPUS82 KCHS 210212
OPUCHS

TEST...KCHS/KSAV Gateway Observations...TEST
National Weather Service Charleston SC
900 PM EST MON NOV 20 2017

NOTE: "fair" indicates few or no clouds below 12,000 feet with no
significant weather and/or obstructions to visibility.

SCZ050-WAZ558-NCZ071-TXZ119-213-PAZ071-DCZ001-FLZ074-172-MI076-
NYZ176-178-MAZ016-IL014-TNZ027-NJZ106-GAZ044-MD014-210300-

...Gateway Observations for Charleston International...

CITY           SKY/WX    TMP DP  RH WIND       PRES   REMARKS
Chas Airport   MOCLDY    45  41  86 CALM      30.25S
Seattle        MOCLDY    46  36  68 CALM      29.98R
Charlotte      CLOUDY    44  28  53 S6        30.23R
Dallas DFW     PTCLDY    56  33  42 S10       29.94F
Dallas Love    CLEAR     59  31  34 S16       29.96F
Philladelphia  CLEAR     41  27  57 S8        30.16S
Wash National  CLEAR     43  27  53 S7        30.19S
Baltimore      PTCLDY    39  24  55 SW5       30.17R WCI  36
Miami          MOCLDY    75  69  81 NE7       30.04R
Detroit        PTCLDY    41  28  60 S18       29.86F
Newark         PTCLDY    42  23  46 SW9       30.12S
Laguardia      PTCLDY    46  23  40 W14G24    30.11S
J F K          PTCLDY    45  27  49 W20       30.13S
Boston Logan   PTCLDY    40  25  55 SW15G24   30.03R WCI  32
Ft. Lauderdale CLOUDY    76  67  73 E14       30.03S
Chicago O`Hare CLOUDY    48  30  49 SW23G32   29.74R
Chicago Midway CLOUDY    47  31  53 SW21G36   29.76S
Houston Bush   PTCLDY    56  48  74 SE8       30.06F
Houston Hobby  PTCLDY    57  51  80 CALM      30.06F
Nashville      PTCLDY    40  28  62 S5        30.10R WCI  37
Atlanta        CLOUDY    47  35  63 E6        30.18R

$$

GAZ044-118-TXZ119-213-NCZ071-DCZ001-MDZ014-506-PAZ021-071-NJZ106-
NYZ176-178-MAZ106-OHZ011-021-055-MIZ076-KYZ091-ILZ014-INZ047-
MNZ060-ONZ431-210300-

...Gateway Observations for Savannah International...

CITY           SKY/WX    TMP DP  RH WIND       PRES   REMARKS
Savannah Arpt  PTCLDY    51  43  74 NE9       30.22F
Atlanta        CLOUDY    47  35  63 E6        30.18R
Charlotte      CLOUDY    44  28  53 S6        30.23R
Dallas DFW     PTCLDY    56  33  42 S10       29.94F
Houston Bush   PTCLDY    56  48  74 SE8       30.06F
Wash National  CLEAR     43  27  53 S7        30.19S
Wash Dulles    PTCLDY    40  23  50 S6        30.17S WCI  36
Baltimore      PTCLDY    39  24  55 SW5       30.17R WCI  36
Philadelphia   CLEAR     41  27  57 S8        30.16S
Newark         PTCLDY    42  23  46 SW9       30.12S
Laguardia      PTCLDY    46  23  40 W14G24    30.11S
J F K          PTCLDY    45  27  49 W20       30.13S
Boston         PTCLDY    40  25  55 SW15G24   30.03R WCI  32
Pittsburg      PTCLDY    38  21  50 S6        30.04F WCI  33
Akron          PTCLDY    39  22  50 S18       30.00F WCI  30
Cleveland      PTCLDY    41  24  51 S16G25    29.97F
Cincinnati     PTCLDY    39  27  62 S10       30.02F WCI  32
Columbus       CLEAR     35  25  67 S5        30.04F WCI  31
Detroit        PTCLDY    41  28  60 S18       29.86F
Chicago O`Hare CLOUDY    48  30  49 SW23G32   29.74R
Minneapolis    PTCLDY    44  29  55 W10       29.47R
Indianapolis   PTCLDY    41  24  51 S14       29.95F
Toronto Canada PTCLDY    39  32  75 SW12      29.84F WCI  32

$$




USA.gov is the U.S. government's official web portal to all federal, state and local government web resources and services.